Time_in_sec,gx,gy,gz
1312468967.92311525,0.01367190,-0.02064027,-0.99969348
1312468967.97210526,0.01525357,-0.02328893,-0.99961240
1312468968.02311730,0.01514248,-0.02315407,-0.99961722
1312468968.07219005,0.01494734,-0.02294839,-0.99962490
1312468968.12017775,0.01462805,-0.02294449,-0.99962972
1312468968.17108989,0.01445595,-0.02280414,-0.99963543
1312468968.22018409,0.01429574,-0.02308297,-0.99963134
1312468968.27222967,0.01577225,-0.02539384,-0.99955309
1312468968.32022929,0.01590445,-0.02528252,-0.99955382
1312468968.37213111,0.01600657,-0.02568770,-0.99954186
1312468968.42023921,0.01603269,-0.02555941,-0.99954473
1312468968.47211313,0.01791236,-0.02790105,-0.99945019
1312468968.52022624,0.01758461,-0.02828921,-0.99944510
1312468968.57220387,0.01727172,-0.02840844,-0.99944717
1312468968.62381458,0.01738522,-0.02869962,-0.99943688
1312468968.67118001,0.01758637,-0.02872983,-0.99943250
1312468968.72311187,0.01845148,-0.03057140,-0.99936226
1312468968.77158976,0.01822110,-0.03049100,-0.99936895
1312468968.82315421,0.01809845,-0.03055988,-0.99936907
1312468968.87222767,0.01808898,-0.03059256,-0.99936824
1312468968.91223216,0.01799296,-0.03062327,-0.99936904
1312468968.97223806,0.01835733,-0.03079978,-0.99935698
1312468969.02310848,0.01934406,-0.03171680,-0.99930969
1312468969.07210231,0.01933987,-0.03182637,-0.99930629
1312468969.12309647,0.01926445,-0.03200219,-0.99930213
1312468969.17213678,0.01931857,-0.03176457,-0.99930866
1312468969.22422671,0.02029628,-0.03241137,-0.99926851
1312468969.27202272,0.02017723,-0.03214056,-0.99927967
1312468969.32421327,0.02033350,-0.03237480,-0.99926894
1312468969.37223387,0.02029365,-0.03225554,-0.99927361
1312468969.42309666,0.02023399,-0.03232865,-0.99927246
1312468969.47192168,0.02025231,-0.03211874,-0.99927886
1312468969.52311134,0.01990388,-0.03197572,-0.99929044
1312468969.57222414,0.01978386,-0.03169013,-0.99930192
1312468969.62310624,0.01973727,-0.03153675,-0.99930770
1312468969.67119884,0.01989805,-0.03161977,-0.99930189
1312468969.72323585,0.01956367,-0.03125113,-0.99932008
1312468969.77120113,0.01950226,-0.03127761,-0.99932046
1312468969.82066083,0.01953570,-0.03158708,-0.99931007
1312468969.87178564,0.01964692,-0.03132158,-0.99931624
1312468969.92330980,0.01956593,-0.03135391,-0.99931682
1312468969.97119975,0.01964498,-0.03100732,-0.99932608
1312468970.02328205,0.01870242,-0.02980918,-0.99938062
1312468970.07209420,0.01871352,-0.02973518,-0.99938262
1312468970.12334228,0.01852348,-0.02977348,-0.99938502
1312468970.17121363,0.01835899,-0.02976379,-0.99938835
1312468970.22310853,0.01858800,-0.02919485,-0.99940089
1312468970.27222538,0.01868891,-0.02920648,-0.99939867
1312468970.32414794,0.01872436,-0.02939635,-0.99939244
1312468970.37165093,0.01849587,-0.02927073,-0.99940038
1312468970.42331338,0.01849580,-0.02928484,-0.99939997
1312468970.47120929,0.01794688,-0.02845434,-0.99943397
1312468970.52413797,0.01797240,-0.02895920,-0.99941901
1312468970.57119966,0.01800884,-0.02877673,-0.99942362
1312468970.62414193,0.01813601,-0.02883720,-0.99941958
1312468970.67119861,0.01811434,-0.02890144,-0.99941812
1312468970.72412515,0.01829142,-0.02829375,-0.99943228
1312468970.77120996,0.01835344,-0.02854466,-0.99942401
1312468970.82412648,0.01801854,-0.02845199,-0.99943275
1312468970.87222600,0.01789028,-0.02824584,-0.99944090
1312468970.91156483,0.01784138,-0.02800744,-0.99944848
1312468970.97226262,0.01740898,-0.02754185,-0.99946905
1312468971.02313805,0.01772893,-0.02746097,-0.99946565
1312468971.07224441,0.01749690,-0.02736117,-0.99947247
1312468971.12314296,0.01737923,-0.02782965,-0.99946159
1312468971.17121506,0.01729182,-0.02794169,-0.99945998
1312468971.22316527,0.01730408,-0.02812039,-0.99945476
1312468971.27121258,0.01619570,-0.02744519,-0.99949210
1312468971.32020617,0.01602468,-0.02732945,-0.99949803
1312468971.37213421,0.01621528,-0.02725250,-0.99949706
1312468971.42018986,0.01643162,-0.02709170,-0.99949789
1312468971.47213078,0.01687990,-0.02689675,-0.99949569
1312468971.52011013,0.01694767,-0.02693860,-0.99949342
1312468971.57208967,0.01696123,-0.02692275,-0.99949361
1312468971.62018585,0.01700199,-0.02711695,-0.99948767
1312468971.67120457,0.01694709,-0.02722906,-0.99948555
1312468971.72311950,0.01681613,-0.02655755,-0.99950584
1312468971.77121592,0.01681265,-0.02656273,-0.99950576
1312468971.82012057,0.01700319,-0.02686314,-0.99949450
1312468971.87221479,0.01697254,-0.02696380,-0.99949231
1312468971.92310596,0.01708828,-0.02698544,-0.99948976
1312468971.97115946,0.01699337,-0.02737574,-0.99948076
1312468972.02309585,0.01767073,-0.02782242,-0.99945668
1312468972.07114935,0.01759481,-0.02805171,-0.99945161
1312468972.12309098,0.01754187,-0.02829024,-0.99944582
1312468972.17222428,0.01744113,-0.02798755,-0.99945610
1312468972.22412586,0.01742440,-0.02789478,-0.99945899
1312468972.27123761,0.01722084,-0.02796924,-0.99946044
1312468972.32419777,0.01712252,-0.02783044,-0.99946600
1312468972.37224722,0.01721435,-0.02765452,-0.99946931
1312468972.42369056,0.01716911,-0.02777971,-0.99946661
1312468972.47225475,0.01731057,-0.02792329,-0.99946017
1312468972.52311206,0.01710507,-0.02786076,-0.99946545
1312468972.57116055,0.01711396,-0.02801171,-0.99946108
1312468972.62320137,0.01711552,-0.02791256,-0.99946383
1312468972.67215347,0.01713342,-0.02771778,-0.99946894
1312468972.72378254,0.01622904,-0.02750792,-0.99948984
1312468972.77228737,0.01619641,-0.02749463,-0.99949073
1312468972.82325554,0.01627438,-0.02732685,-0.99949407
1312468972.87221384,0.01637138,-0.02735875,-0.99949161
1312468972.91210365,0.01634670,-0.02727350,-0.99949434
1312468972.97208285,0.01628859,-0.02714179,-0.99949888
1312468973.02325130,0.01654963,-0.02771347,-0.99947890
1312468973.07220793,0.01669831,-0.02749084,-0.99948258
1312468973.12311530,0.01664055,-0.02753800,-0.99948224
1312468973.17221761,0.01685282,-0.02765092,-0.99947557
1312468973.22319055,0.01768819,-0.02809950,-0.99944862
1312468973.27221394,0.01782364,-0.02851115,-0.99943456
1312468973.32312274,0.01760135,-0.02859409,-0.99943613
1312468973.37211299,0.01755547,-0.02855441,-0.99943807
1312468973.42312956,0.01754121,-0.02872036,-0.99943356
1312468973.47223473,0.01696962,-0.02854248,-0.99944853
1312468973.52312517,0.01687695,-0.02855636,-0.99944970
1312468973.57187176,0.01683521,-0.02862307,-0.99944850
1312468973.62310648,0.01680112,-0.02889399,-0.99944127
1312468973.67119694,0.01688381,-0.02890123,-0.99943967
1312468973.72310472,0.01539491,-0.02727320,-0.99950946
1312468973.77221560,0.01541114,-0.02725203,-0.99950979
1312468973.82039165,0.01573837,-0.02725648,-0.99950457
1312468973.87218595,0.01594557,-0.02739920,-0.99949739
1312468973.92315578,0.01587888,-0.02738621,-0.99949880
1312468973.97120237,0.01584879,-0.02751187,-0.99949583
1312468974.02326846,0.01601380,-0.02663150,-0.99951704
1312468974.07222342,0.01610539,-0.02675693,-0.99951222
1312468974.12027287,0.01616432,-0.02686020,-0.99950850
1312468974.17226768,0.01647565,-0.02685731,-0.99950350
1312468974.22022653,0.01664994,-0.02724604,-0.99949009
1312468974.27224112,0.01661925,-0.02736735,-0.99948728
1312468974.32023335,0.01646894,-0.02772433,-0.99947993
1312468974.37220669,0.01661716,-0.02762915,-0.99948011
1312468974.42311406,0.01606884,-0.02772634,-0.99948639
1312468974.47121835,0.01639554,-0.02824953,-0.99946643
1312468974.52020264,0.01666326,-0.02818154,-0.99946392
1312468974.57220173,0.01671674,-0.02841781,-0.99945634
1312468974.62016797,0.01639380,-0.02821954,-0.99946731
1312468974.67220664,0.01631335,-0.02817392,-0.99946991
1312468974.72370577,0.01691190,-0.02900754,-0.99943612
1312468974.77223468,0.01696053,-0.02880607,-0.99944112
1312468974.82320309,0.01664867,-0.02876331,-0.99944759
1312468974.87215900,0.01667542,-0.02876326,-0.99944715
1312468974.92350197,0.01654115,-0.02898849,-0.99944287
1312468974.97212982,0.01713315,-0.03108885,-0.99936977
1312468975.02311206,0.01714489,-0.03138208,-0.99936040
1312468975.07221842,0.01707096,-0.03156777,-0.99935582
1312468975.12312603,0.01706432,-0.03171030,-0.99935142
1312468975.17208004,0.01698614,-0.03162655,-0.99935541
1312468975.22320008,0.01715463,-0.03165028,-0.99935178
1312468975.27209926,0.01766971,-0.03243670,-0.99931759
1312468975.32328248,0.01776091,-0.03229750,-0.99932048
1312468975.37175059,0.01769807,-0.03222799,-0.99932384
1312468975.42344689,0.01769967,-0.03214420,-0.99932651
1312468975.47210789,0.01802044,-0.03195042,-0.99932699
1312468975.52338862,0.01947975,-0.03399977,-0.99923198
1312468975.57222509,0.01957577,-0.03404103,-0.99922870
1312468975.62329030,0.01955561,-0.03403702,-0.99922923
1312468975.67173743,0.01952424,-0.03398696,-0.99923155
1312468975.72386575,0.02120518,-0.03668621,-0.99910183
1312468975.77202606,0.02118121,-0.03684181,-0.99909661
1312468975.82422948,0.02130633,-0.03699784,-0.99908818
1312468975.87219691,0.02124223,-0.03710429,-0.99908560
1312468975.92361951,0.02151623,-0.03751845,-0.99906427
1312468975.97128177,0.02318954,-0.03928319,-0.99895900
1312468976.02325225,0.02290722,-0.03913459,-0.99897134
1312468976.07221460,0.02272705,-0.03893201,-0.99898337
1312468976.12311959,0.02250830,-0.03924960,-0.99897590
1312468976.17213106,0.02234617,-0.03905330,-0.99898723
1312468976.22324252,0.02245602,-0.03898798,-0.99898732
1312468976.27210498,0.02356836,-0.03996658,-0.99892302
1312468976.32323360,0.02368992,-0.03994790,-0.99892089
1312468976.37222481,0.02360391,-0.04019564,-0.99891299
1312468976.42308640,0.02364319,-0.04004549,-0.99891809
1312468976.47221708,0.02446454,-0.04088100,-0.99886447
1312468976.52409863,0.02431225,-0.04087251,-0.99886854
1312468976.57218194,0.02422998,-0.04081668,-0.99887282
1312468976.62308288,0.02408899,-0.04092698,-0.99887172
1312468976.67208362,0.02403349,-0.04088982,-0.99887457
1312468976.72038555,0.02519852,-0.04148264,-0.99882142
1312468976.77223301,0.02503103,-0.04132902,-0.99883200
1312468976.82041955,0.02476173,-0.04141614,-0.99883510
1312468976.87210035,0.02485837,-0.04171338,-0.99882033
1312468976.92025042,0.02478554,-0.04175227,-0.99882052
1312468976.97220683,0.02454657,-0.04137336,-0.99884219
1312468977.02321434,0.02438762,-0.04143467,-0.99884354
1312468977.07222795,0.02429564,-0.04144798,-0.99884523
1312468977.12307429,0.02441147,-0.04146530,-0.99884168
1312468977.17214179,0.02444524,-0.04144555,-0.99884168
1312468977.22320485,0.02438657,-0.04185592,-0.99882600
1312468977.27212071,0.02391477,-0.04031592,-0.99890075
1312468977.32309246,0.02391194,-0.04054201,-0.99889167
1312468977.37222004,0.02367136,-0.04055259,-0.99889697
1312468977.42022347,0.02348759,-0.04045594,-0.99890523
1312468977.47220516,0.02369032,-0.04066381,-0.99889200
1312468977.52021480,0.02246677,-0.03885527,-0.99899225
1312468977.57221580,0.02233894,-0.03906659,-0.99898687
1312468977.62013769,0.02226896,-0.03907646,-0.99898805
1312468977.67214322,0.02240428,-0.03944327,-0.99897061
1312468977.72313070,0.02214047,-0.03951624,-0.99897361
1312468977.77211642,0.02069478,-0.03744928,-0.99908422
1312468977.82456803,0.02067193,-0.03769721,-0.99907537
1312468977.87174177,0.02065190,-0.03738887,-0.99908737
1312468977.92328000,0.02030968,-0.03758585,-0.99908699
1312468977.97163963,0.01946946,-0.03547616,-0.99918086
1312468978.02109599,0.01940053,-0.03536920,-0.99918599
1312468978.07120037,0.01924053,-0.03539935,-0.99918801
1312468978.12417340,0.01906203,-0.03536308,-0.99919272
1312468978.17222238,0.01882243,-0.03558476,-0.99918939
1312468978.22314215,0.01873270,-0.03527602,-0.99920203
1312468978.27163625,0.01742013,-0.03321561,-0.99929638
1312468978.32311630,0.01728183,-0.03343076,-0.99929161
1312468978.37112117,0.01732378,-0.03359613,-0.99928534
1312468978.42310619,0.01729864,-0.03358314,-0.99928621
1312468978.47119761,0.01598936,-0.03152881,-0.99937494
1312468978.52307320,0.01587921,-0.03166724,-0.99937232
1312468978.57127261,0.01567029,-0.03178803,-0.99937178
1312468978.62316298,0.01566126,-0.03184137,-0.99937023
1312468978.67138457,0.01586565,-0.03186179,-0.99936635
1312468978.72320271,0.01588924,-0.03183366,-0.99936687
1312468978.77161503,0.01532521,-0.03045538,-0.99941863
1312468978.82310820,0.01543888,-0.03057728,-0.99941316
1312468978.87172532,0.01537321,-0.03078691,-0.99940774
1312468978.91116428,0.01555931,-0.03079698,-0.99940455
1312468978.97188973,0.01567255,-0.03068227,-0.99940631
1312468979.02306700,0.01461032,-0.02922531,-0.99946607
1312468979.07240605,0.01446940,-0.02943356,-0.99946201
1312468979.12311506,0.01439507,-0.02969853,-0.99945524
1312468979.17286396,0.01442260,-0.02971370,-0.99945439
1312468979.22309589,0.01443497,-0.03001906,-0.99944509
1312468979.27220798,0.01352114,-0.02843170,-0.99950429
1312468979.32310486,0.01369644,-0.02861665,-0.99949662
1312468979.37228060,0.01364151,-0.02901185,-0.99948598
1312468979.42337990,0.01341312,-0.02902729,-0.99948862
1312468979.47240400,0.01334417,-0.02919986,-0.99948452
1312468979.52311087,0.01243187,-0.02838765,-0.99951968
1312468979.57213092,0.01245070,-0.02823010,-0.99952391
1312468979.62309217,0.01260827,-0.02823294,-0.99952185
1312468979.67222118,0.01288426,-0.02824259,-0.99951806
1312468979.72320604,0.01281282,-0.02849930,-0.99951169
1312468979.77203226,0.01328746,-0.02818087,-0.99951452
1312468979.82424068,0.01329044,-0.02821659,-0.99951348
1312468979.87110734,0.01325416,-0.02815376,-0.99951573
1312468979.92312598,0.01322388,-0.02800671,-0.99952026
1312468979.97120070,0.01217137,-0.02712179,-0.99955804
1312468980.02424884,0.01190983,-0.02707374,-0.99956249
1312468980.07121181,0.01174082,-0.02715488,-0.99956229
1312468980.12320375,0.01184830,-0.02718214,-0.99956028
1312468980.16309428,0.01214399,-0.02721587,-0.99955581
1312468980.22310925,0.01206194,-0.02719845,-0.99955728
1312468980.27107882,0.01108566,-0.02617427,-0.99959593
1312468980.32309341,0.01138566,-0.02625671,-0.99959039
1312468980.37199640,0.01122443,-0.02627714,-0.99959168
1312468980.42020988,0.01113077,-0.02623807,-0.99959375
1312468980.47213006,0.01111854,-0.02634352,-0.99959111
1312468980.52020025,0.01115629,-0.02547015,-0.99961333
1312468980.57211089,0.01095407,-0.02589218,-0.99960472
1312468980.62020612,0.01079097,-0.02586921,-0.99960709
1312468980.67208362,0.01073169,-0.02606950,-0.99960253
1312468980.72336912,0.01104054,-0.02641487,-0.99959010
1312468980.77212238,0.01107672,-0.02618558,-0.99959573
1312468980.82014036,0.01100326,-0.02664814,-0.99958432
1312468980.87214279,0.01076998,-0.02684096,-0.99958170
1312468980.91108274,0.01067698,-0.02676885,-0.99958463
1312468980.97208905,0.01050839,-0.02669570,-0.99958837
1312468981.02307701,0.00957470,-0.02557339,-0.99962709
1312468981.07212615,0.00949550,-0.02567495,-0.99962525
1312468981.12421322,0.00922910,-0.02574077,-0.99962605
1312468981.16423273,0.00924143,-0.02606164,-0.99961762
1312468981.22423387,0.00900263,-0.02596902,-0.99962221
1312468981.27223992,0.00783292,-0.02442134,-0.99967107
1312468981.32328844,0.00781840,-0.02441142,-0.99967142
1312468981.37199616,0.00756344,-0.02467068,-0.99966702
1312468981.42421579,0.00754739,-0.02474162,-0.99966539
1312468981.47222733,0.00761551,-0.02458051,-0.99966885
1312468981.52313066,0.00641035,-0.02202059,-0.99973697
1312468981.57213712,0.00605141,-0.02198589,-0.99973997
1312468981.62309623,0.00589039,-0.02207862,-0.99973888
1312468981.67221951,0.00570290,-0.02230073,-0.99973504
1312468981.72311306,0.00574982,-0.02259570,-0.99972815
1312468981.77212429,0.00342249,-0.01855107,-0.99982206
1312468981.82424593,0.00359461,-0.01890365,-0.99981485
1312468981.87221932,0.00385353,-0.01913420,-0.99980950
1312468981.92423701,0.00383681,-0.01928097,-0.99980674
1312468981.97222066,0.00371153,-0.01928415,-0.99980715
1312468982.02423573,-0.00023539,-0.01353280,-0.99990840
1312468982.07156324,-0.00019593,-0.01329501,-0.99991160
1312468982.12310052,-0.00031423,-0.01333900,-0.99991098
1312468982.16320229,-0.00039868,-0.01339658,-0.99991018
1312468982.22314310,-0.00077835,-0.01374878,-0.99990518
1312468982.27225089,-0.00462582,-0.00712033,-0.99996395
1312468982.32304835,-0.00480015,-0.00687833,-0.99996482
1312468982.37211442,-0.00470958,-0.00684561,-0.99996548
1312468982.42321396,-0.00477410,-0.00687444,-0.99996497
1312468982.47223711,-0.00450927,-0.00681270,-0.99996663
1312468982.52311087,-0.00875477,0.00008724,-0.99996167
1312468982.57225418,-0.00871676,-0.00015199,-0.99996200
1312468982.62317634,-0.00871870,0.00000890,-0.99996199
1312468982.67221379,-0.00853669,0.00010559,-0.99996356
1312468982.72310328,-0.00846083,-0.00003707,-0.99996421
1312468982.77112603,-0.01285705,0.00763117,-0.99988822
1312468982.82310700,-0.01276061,0.00770063,-0.99988893
1312468982.87222266,-0.01291924,0.00757191,-0.99988787
1312468982.91108418,-0.01291444,0.00785203,-0.99988577
1312468982.97211456,-0.01297692,0.00793855,-0.99988428
1312468983.02309155,-0.01729696,0.01572035,-0.99972681
1312468983.07112861,-0.01734250,0.01574838,-0.99972558
1312468983.12058520,-0.01734126,0.01554516,-0.99972878
1312468983.16321969,-0.01728735,0.01552855,-0.99972997
1312468983.22022486,-0.01739292,0.01541963,-0.99972982
1312468983.27196169,-0.02212173,0.02265203,-0.99949863
1312468983.32414794,-0.02221268,0.02262895,-0.99949714
1312468983.37209797,-0.02214956,0.02275574,-0.99949566
1312468983.42312074,-0.02233699,0.02296235,-0.99948676
1312468983.47213125,-0.02229676,0.02283923,-0.99949048
1312468983.52020574,-0.02566461,0.02834322,-0.99926873
1312468983.57110524,-0.02582383,0.02835928,-0.99926417
1312468983.62014890,-0.02562088,0.02860513,-0.99926239
1312468983.67208028,-0.02543285,0.02855321,-0.99926867
1312468983.72414684,-0.02541828,0.02851754,-0.99927006
1312468983.77241158,-0.02914711,0.03473560,-0.99897141
1312468983.82014132,-0.02890112,0.03445541,-0.99898826
1312468983.87213635,-0.02905887,0.03460243,-0.99897861
1312468983.92311287,-0.02902105,0.03469879,-0.99897636
1312468983.97260427,-0.02920431,0.03476116,-0.99896885
1312468984.02335215,-0.03303768,0.04024738,-0.99864341
1312468984.07292056,-0.03290267,0.04018727,-0.99865029
1312468984.12348223,-0.03287821,0.03996062,-0.99866019
1312468984.17291689,-0.03289077,0.03994575,-0.99866037
1312468984.22378492,-0.03546643,0.04493040,-0.99836035
1312468984.27291274,-0.03522998,0.04484213,-0.99837269
1312468984.32319999,-0.03522245,0.04509297,-0.99836166
1312468984.37210870,-0.03531281,0.04507248,-0.99835939
1312468984.42354655,-0.03556787,0.04496894,-0.99835501
1312468984.47211313,-0.03582389,0.04499445,-0.99834470
1312468984.52318096,-0.03797123,0.04983274,-0.99803551
1312468984.57216859,-0.03797837,0.05013595,-0.99802006
1312468984.62345624,-0.03777790,0.05015426,-0.99802674
1312468984.67217255,-0.03780051,0.05027656,-0.99801973
1312468984.72332573,-0.03893343,0.05287910,-0.99784167
1312468984.77221942,-0.03886738,0.05289135,-0.99784359
1312468984.82356024,-0.03890509,0.05279054,-0.99784746
1312468984.87215114,-0.03899173,0.05286104,-0.99784035
1312468984.91221237,-0.03861006,0.05308990,-0.99784304
1312468984.97208118,-0.03862625,0.05302516,-0.99784585
1312468985.02345490,-0.03989190,0.05462104,-0.99770997
1312468985.07273459,-0.04000237,0.05464087,-0.99770446
1312468985.12422514,-0.04017715,0.05457717,-0.99770092
1312468985.17265105,-0.04022166,0.05481674,-0.99768599
1312468985.22320080,-0.04113809,0.05557921,-0.99760644
1312468985.27211070,-0.04117831,0.05566997,-0.99759972
1312468985.32337499,-0.04109984,0.05553713,-0.99761036
1312468985.37213302,-0.04130395,0.05566358,-0.99759488
1312468985.42310596,-0.04137601,0.05570340,-0.99758967
1312468985.47215343,-0.04130000,0.05544590,-0.99760717
1312468985.52309728,-0.04138706,0.05747925,-0.99748847
1312468985.57221389,-0.04146358,0.05719997,-0.99750135
1312468985.62309718,-0.04129042,0.05709916,-0.99751430
1312468985.67162943,-0.04130991,0.05710628,-0.99751309
1312468985.72328615,-0.04163537,0.05893139,-0.99739340
1312468985.77120686,-0.04174554,0.05906351,-0.99738098
1312468985.82319593,-0.04169740,0.05919206,-0.99737537
1312468985.87211871,-0.04161251,0.05935120,-0.99736946
1312468985.92423987,-0.04163026,0.05947537,-0.99736132
1312468985.97212386,-0.04255494,0.06051705,-0.99725963
1312468986.02324748,-0.04257285,0.06067806,-0.99724908
1312468986.07114005,-0.04254811,0.06067829,-0.99725012
1312468986.12415481,-0.04256592,0.06066669,-0.99725007
1312468986.17213964,-0.04291317,0.06064012,-0.99723680
1312468986.22025299,-0.04293212,0.06054488,-0.99724177
1312468986.27167559,-0.04422282,0.06257687,-0.99705992
1312468986.32021141,-0.04444624,0.06217074,-0.99707539
1312468986.37219024,-0.04425399,0.06235059,-0.99707271
1312468986.42041898,-0.04451545,0.06230232,-0.99706409
1312468986.47221303,-0.04497273,0.06325533,-0.99698356
1312468986.52017522,-0.04499537,0.06300767,-0.99699822
1312468986.57217240,-0.04512138,0.06285728,-0.99700202
1312468986.62310886,-0.04534747,0.06291652,-0.99698802
1312468986.67120934,-0.04502763,0.06276628,-0.99701199
